{"data":{"norad_id":66615,"intl_designator":"2025-270AD","name":"STARLINK-35988","alt_names":[],"object_type":"PAYLOAD","status":"ACTIVE","operator":null,"country":"US","launch_date":"2025-11-22","launch_site_code":"AFETR","launch_vehicle":null,"mission":null,"orbit_class":"UNKNOWN","rcs_meters":null,"size_class":null,"mass_kg":null,"dimensions":null,"purposes":["comms"],"wikipedia_slug":null,"has_3d_model":false,"image_url":null,"decayed_at":null,"tle_current":{"epoch":"2026-05-24T17:03:59.821056Z","epoch_age_seconds":100249,"freshness":"FRESH","line1":"1 66615U 25270AD  26144.71110904  .00013931  00000+0  51466-3 0  9991","line2":"2 66615  43.0004 346.7404 0001172 271.3505  88.7212 15.27588423 29171","mean_motion":15.27588423,"eccentricity":0.0001172,"inclination_deg":43.0004,"raan_deg":346.7404,"arg_perigee_deg":271.3505,"mean_anomaly_deg":88.7212,"bstar":0.00051466,"rev_number":2917,"period_min":94.266228934363,"perigee_km":482.21974660887,"apogee_km":483.8280027179,"semimajor_km":6861.1608746634,"source":"CELESTRAK","updated_at":"2026-05-25T13:38:21.293153Z"}}}